Location: Thompson
(55.7500°N, 97.8670°W)
Time: 01:33:54
(UTC-05:00)

Amateur Radio Satellites - All Passes

Search period start: 27 July 2016 01:03
Search period end: 28 July 2016 01:03
Location: Thompson, 55.7500°N, 97.8670°W

Satellite Date Start Highest point End Downlink Frequencies (MHz)
Time Altitude Azimuth
AIST 2 27 Jul 01:04:24 01:08:09 31° 339° (NNW) 01:11:55 435.215
CUBEBUG 1 27 Jul 01:05:04 01:08:52 30° 266° (W) 01:12:43 437.445
ISS 27 Jul 01:17:06 01:20:10 39° 176° (S) 01:23:15 145.825
50 SAT 27 Jul 01:26:40 01:29:07 17° 270° (W) 01:31:34 437.505
JAS-2 27 Jul 01:30:30 01:35:17 34° 96° (E) 01:40:16 435.910
NANOSAT C BR1 27 Jul 01:36:07 01:40:27 86° 284° (WNW) 01:44:44 145.865
Cosmos 2499 27 Jul 01:36:43 01:43:21 26° 49° (NE) 01:49:33 435.465 / 435.565
PCSat 27 Jul 01:39:59 01:44:33 26° 9° (N) 01:49:05 145.827
DUCHIFAT 1 27 Jul 01:40:36 01:44:54 83° 290° (WNW) 01:49:11 145.980
TIGRISAT 27 Jul 01:41:43 01:45:28 24° 303° (WNW) 01:49:09 435.000
SWISSCUBE 27 Jul 01:47:11 01:51:33 36° 61° (ENE) 01:55:56 437.505
AISAT 27 Jul 01:49:25 01:51:56 15° 274° (W) 01:54:28 437.250
DX 1 27 Jul 01:49:36 01:52:38 18° 271° (W) 01:55:41 434.975-435.025
O/OREOS (USA 219) 27 Jul 01:55:14 01:56:34 11° 349° (N) 01:57:55 437.305
BUGSAT 1 27 Jul 01:56:33 02:00:50 73° 104° (ESE) 02:05:06 437.445
TISAT 1 27 Jul 01:57:05 02:01:16 63° 257° (WSW) 02:05:30 437.305
UNISAT 6 27 Jul 01:58:20 02:01:33 19° 308° (NW) 02:04:43 437.425
QB50P1 27 Jul 01:58:27 02:02:40 54° 292° (WNW) 02:06:51 145.935-145.965
Cosmos 2491 27 Jul 02:03:36 02:09:37 20° 321° (NW) 02:15:41 435.465 / 435.565
UKube-1 27 Jul 02:04:14 02:07:01 17° 272° (W) 02:09:48 .
POPSAT HIP 1 27 Jul 02:04:55 02:09:05 48° 293° (WNW) 02:13:13 437.405
Gurwin Techsat 1B 27 Jul 02:06:00 02:08:20 13° 82° (E) 02:10:39 435.225
BEESAT 27 Jul 02:08:18 02:12:55 47° 64° (ENE) 02:17:30 436.000
AIST 1 27 Jul 02:19:06 02:22:39 25° 272° (W) 02:26:13
BEESAT 3 27 Jul 02:19:27 02:23:19 47° 32° (NNE) 02:27:10 437.485
KKS-1 27 Jul 02:22:21 02:24:37 14° 48° (NE) 02:26:54 437.445
BEESAT 2 27 Jul 02:24:50 02:28:37 38° 27° (NNE) 02:32:23 435.950
QB50P2 27 Jul 02:26:01 02:29:51 32° 298° (WNW) 02:33:40 145.880/145.840
Oscar 19 27 Jul 02:26:21 02:31:00 32° 94° (E) 02:35:38 437.125/150
POLYITAN 1 27 Jul 02:28:40 02:32:30 31° 298° (WNW) 02:36:18 437.675
ITUPSAT 1 27 Jul 02:31:00 02:35:47 69° 69° (ENE) 02:40:35 437.325
GONETS M04 27 Jul 02:37:05 02:45:48 60° 70° (ENE) 02:54:30
ANTELSAT 27 Jul 02:38:17 02:39:32 11° 316° (NW) 02:40:47 437.575/2403.000
SPROUT 27 Jul 02:40:38 02:41:25 10° 278° (W) 02:42:13 437.525
AIST 2 27 Jul 02:44:17 02:47:40 23° 2° (N) 02:51:05 435.215
MOZHAYETS 4 27 Jul 02:52:56 02:56:31 23° 56° (NE) 03:00:07
ISS 27 Jul 02:53:17 02:56:13 31° 196° (SSW) 02:59:09 145.825
STARS 27 Jul 03:01:17 03:03:59 16° 51° (NE) 03:06:41 437.465
NANOSAT C BR1 27 Jul 03:12:52 03:15:36 17° 307° (NW) 03:18:20 145.865
JAS-2 27 Jul 03:15:39 03:20:38 48° 296° (WNW) 03:25:51 435.910
DUCHIFAT 1 27 Jul 03:17:21 03:20:00 16° 307° (NW) 03:22:39 145.980
PCSat 27 Jul 03:23:54 03:29:10 47° 34° (NE) 03:34:24 145.827
SWISSCUBE 27 Jul 03:24:45 03:29:19 43° 261° (W) 03:33:55 437.505
Cosmos 2499 27 Jul 03:29:50 03:38:01 79° 76° (ENE) 03:45:32 435.465 / 435.565
BUGSAT 1 27 Jul 03:32:39 03:35:48 21° 304° (NW) 03:38:57 437.445
QB50P1 27 Jul 03:36:04 03:37:35 12° 312° (NW) 03:39:07 145.935-145.965
O/OREOS (USA 219) 27 Jul 03:36:21 03:38:05 12° 15° (NNE) 03:39:51 437.305
POPSAT HIP 1 27 Jul 03:42:53 03:43:56 11° 314° (NW) 03:44:59 437.405
CUSAT 1 27 Jul 03:43:12 03:44:38 12° 92° (E) 03:45:59 437.405
Gurwin Techsat 1B 27 Jul 03:44:05 03:49:24 63° 103° (ESE) 03:54:41 435.225
BEESAT 27 Jul 03:46:34 03:50:52 32° 265° (W) 03:55:12 436.000
AO-7 27 Jul 03:51:29 03:57:37 22° 85° (E) 04:03:42 29.400- 29.500
KKS-1 27 Jul 03:56:01 04:00:24 63° 69° (ENE) 04:04:50 437.445
BEESAT 3 27 Jul 03:57:15 04:00:59 39° 233° (SW) 04:04:42 437.485
ITAMSAT 1 27 Jul 04:00:05 04:04:50 34° 95° (E) 04:09:33 435.822/435.867
BEESAT 2 27 Jul 04:02:42 04:06:39 56° 229° (SW) 04:10:34 435.950
DANDE 27 Jul 04:03:15 04:05:06 12° 89° (E) 04:06:46 436.750
Oscar 19 27 Jul 04:05:34 04:10:35 53° 295° (WNW) 04:15:36 437.125/150
Cosmos 2491 27 Jul 04:09:40 04:11:18 11° 355° (N) 04:12:55 435.465 / 435.565
ITUPSAT 1 27 Jul 04:10:20 04:14:06 23° 269° (W) 04:17:53 437.325
CUBESAT XI-V 27 Jul 04:11:57 04:15:15 20° 54° (NE) 04:18:35 437.345
AIST 2 27 Jul 04:23:14 04:27:08 37° 26° (NNE) 04:31:02 435.215
MOZHAYETS 4 27 Jul 04:28:39 04:33:17 73° 256° (WSW) 04:37:57
ISS 27 Jul 04:30:30 04:31:58 12° 215° (SW) 04:33:26 145.825
GONETS M04 27 Jul 04:34:18 04:42:29 46° 274° (W) 04:50:42
STARS 27 Jul 04:35:17 04:39:41 77° 71° (ENE) 04:44:08 437.465
JAS-2 27 Jul 05:02:30 05:04:41 13° 318° (NW) 05:06:53 435.910
HORYU 2 27 Jul 05:05:56 05:06:57 11° 83° (E) 05:07:58 437.375
PCSat 27 Jul 05:07:26 05:12:45 55° 236° (WSW) 05:18:02 145.827
O/OREOS (USA 219) 27 Jul 05:15:11 05:19:04 27° 40° (NE) 05:22:57 437.305
CUSAT 1 27 Jul 05:22:54 05:26:26 55° 287° (WNW) 05:29:20 437.405
Cosmos 2499 27 Jul 05:23:39 05:30:20 30° 281° (W) 05:36:38 435.465 / 435.565
Gurwin Techsat 1B 27 Jul 05:24:29 05:29:05 30° 303° (WNW) 05:33:40 435.225
KKS-1 27 Jul 05:33:54 05:37:23 22° 269° (W) 05:40:54 437.445
STRAND 1 27 Jul 05:37:23 05:40:26 16° 46° (NE) 05:43:28 437.568
ITAMSAT 1 27 Jul 05:39:29 05:44:31 50° 296° (WNW) 05:49:31 435.822/435.867
DANDE 27 Jul 05:42:35 05:47:35 84° 105° (ESE) 05:51:20 436.750
BEESAT 2 27 Jul 05:42:55 05:43:40 10° 249° (WSW) 05:44:24 435.950
AO-7 27 Jul 05:43:31 05:51:56 73° 108° (ESE) 06:00:16 29.400- 29.500
Oscar 19 27 Jul 05:46:16 05:48:55 14° 316° (NW) 05:51:33 437.125/150
CUBESAT XI-V 27 Jul 05:47:31 05:52:08 85° 256° (WSW) 05:56:47 437.345
NOAA 15 27 Jul 06:00:32 06:01:30 10° 80° (E) 06:02:29 137.62
AIST 2 27 Jul 06:01:44 06:05:53 64° 228° (SW) 06:10:01 435.215
Cosmos 2491 27 Jul 06:08:32 06:13:24 16° 30° (NNE) 06:18:15 435.465 / 435.565
MOZHAYETS 4 27 Jul 06:09:12 06:11:19 13° 277° (W) 06:13:26
STARS 27 Jul 06:13:35 06:16:36 18° 271° (W) 06:19:39 437.465
NOAA 18 27 Jul 06:14:18 06:15:48 11° 80° (E) 06:17:17 137.9125
GOMX 1 27 Jul 06:32:00 06:34:26 13° 83° (E) 06:36:56 467.674
GONETS M04 27 Jul 06:33:50 06:36:54 12° 299° (WNW) 06:39:59
RS-15 27 Jul 06:37:32 06:46:31 27° 101° (E) 06:55:48 29.354- 29.394
HORYU 2 27 Jul 06:39:58 06:44:28 63° 103° (ESE) 06:48:54 437.375
LilacSat-2 27 Jul 06:47:22 06:49:42 15° 88° (E) 06:52:01 437.200
PCSat 27 Jul 06:52:53 06:55:02 12° 257° (WSW) 06:57:10 145.827
Cubesat XI-IV 27 Jul 06:53:40 06:57:47 22° 89° (E) 07:01:53 437.490
O/OREOS (USA 219) 27 Jul 06:54:24 06:58:54 71° 243° (WSW) 07:03:27 437.305
BRITE-PL 27 Jul 07:06:00 07:10:25 40° 97° (E) 07:15:09 437.365/2234.400
PRISM 27 Jul 07:11:34 07:13:15 12° 49° (NE) 07:14:55 437.425
STRAND 1 27 Jul 07:13:39 07:18:44 61° 67° (ENE) 07:23:49 437.568
CUTE-I 27 Jul 07:17:02 07:21:50 32° 94° (E) 07:26:33 437.470
ITAMSAT 1 27 Jul 07:20:23 07:22:56 14° 318° (NW) 07:25:29 435.822/435.867
CUBESAT XI-V 27 Jul 07:27:38 07:30:16 15° 275° (W) 07:32:55 437.345
DANDE 27 Jul 07:28:05 07:30:37 15° 299° (WNW) 07:32:52 436.750
AO-7 27 Jul 07:36:40 07:44:20 42° 312° (NW) 07:51:59 29.400- 29.500
NOAA 15 27 Jul 07:37:22 07:42:32 54° 101° (E) 07:47:41 137.62
AIST 2 27 Jul 07:41:48 07:43:37 13° 248° (WSW) 07:45:25 435.215
NOAA 18 27 Jul 07:52:18 07:57:47 53° 101° (E) 08:03:11 137.9125
DOVE 4 27 Jul 08:01:51 08:06:30 36° 95° (E) 08:11:19 437.250
Cosmos 2491 27 Jul 08:05:19 08:13:28 40° 60° (ENE) 08:21:35 435.465 / 435.565
GOMX 1 27 Jul 08:08:27 08:13:22 68° 103° (ESE) 08:18:35 467.674
CUTE 1.7 + AOD 2 27 Jul 08:11:50 08:13:04 11° 83° (E) 08:14:19 437.475
CINEMA 3 27 Jul 08:14:34 08:18:03 18° 86° (E) 08:21:30 145.822/145.860
HORYU 2 27 Jul 08:17:04 08:20:43 25° 303° (WNW) 08:24:19 437.375
LilacSat-2 27 Jul 08:20:37 08:24:32 75° 286° (WNW) 08:28:22 437.200
Cubesat XI-IV 27 Jul 08:33:07 08:38:31 80° 290° (WNW) 08:43:52 437.490
O/OREOS (USA 219) 27 Jul 08:35:34 08:37:31 13° 262° (W) 08:39:28 437.305
PRISM 27 Jul 08:43:47 08:47:48 62° 70° (ENE) 08:51:52 437.425
BRITE-PL 27 Jul 08:44:41 08:48:57 38° 295° (WNW) 08:53:32 437.365/2234.400
RS-15 27 Jul 08:45:21 08:56:55 73° 128° (SE) 09:09:05 29.354- 29.394
SEEDS 27 Jul 08:49:46 08:52:41 18° 88° (E) 08:55:35 437.485
SO-50 27 Jul 08:51:45 08:55:35 23° 118° (ESE) 08:59:23 436.795
STRAND 1 27 Jul 08:53:55 08:58:18 28° 268° (W) 09:02:42 437.568
ANTELSAT 27 Jul 08:54:18 08:57:04 16° 50° (NE) 08:59:51 437.575/2403.000
CUTE-I 27 Jul 08:56:56 09:02:11 56° 295° (WNW) 09:07:23 437.470
UWE-3 27 Jul 09:01:15 09:02:39 11° 81° (E) 09:04:03 435.000/436.395/437.385
COMPASS 1 27 Jul 09:01:40 09:04:26 17° 88° (E) 09:07:12 437.405
HO-68 27 Jul 09:11:01 09:17:51 43° 97° (E) 09:24:36 435.675
NOAA 15 27 Jul 09:17:28 09:22:11 34° 302° (WNW) 09:26:53 137.62
CUBEBUG 2 27 Jul 09:21:40 09:25:27 23° 89° (E) 09:29:09 437.445
AAUSAT CUBESAT 2 27 Jul 09:29:34 09:32:59 24° 92° (E) 09:36:22 437.432
AO-7 27 Jul 09:29:36 09:35:09 20° 337° (NNW) 09:40:42 29.400- 29.500
CANX-2 27 Jul 09:32:05 09:36:18 60° 101° (E) 09:40:28 2200.000
NOAA 18 27 Jul 09:33:15 09:38:19 37° 302° (WNW) 09:43:21 137.9125
TIGRISAT 27 Jul 09:34:26 09:38:21 27° 58° (ENE) 09:42:18 435.000
Cosmos 2504 27 Jul 09:35:22 09:39:43 15° 65° (ENE) 09:44:01 435.465 / 435.565
DOVE 4 27 Jul 09:39:31 09:44:21 48° 294° (WNW) 09:49:21 437.250
Oscar 11 27 Jul 09:42:21 09:45:07 16° 87° (E) 09:47:52 145.826/435.025
YUBILEINY 27 Jul 09:44:02 09:51:54 39° 83° (E) 09:59:49 435.215
CUTE 1.7 + AOD 2 27 Jul 09:45:30 09:49:45 71° 104° (ESE) 09:53:57 437.475
GOMX 1 27 Jul 09:47:08 09:51:09 26° 301° (WNW) 09:55:23 467.674
UNISAT 6 27 Jul 09:50:22 09:54:37 36° 62° (ENE) 09:58:56 437.425
CINEMA 3 27 Jul 09:50:47 09:55:51 89° 290° (WNW) 10:00:54 145.822/145.860
QB50P1 27 Jul 09:51:04 09:51:34 10° 46° (NE) 09:52:03 145.935-145.965
LilacSat-2 27 Jul 09:56:20 09:58:10 13° 307° (NW) 10:00:00 437.200
POPSAT HIP 1 27 Jul 09:56:40 09:57:56 11° 47° (NE) 09:59:12 437.405
Cosmos 2491 27 Jul 10:02:20 10:11:01 70° 265° (W) 10:19:42 435.465 / 435.565
JAS-2 27 Jul 10:10:58 10:12:12 11° 38° (NE) 10:13:26 435.910
Cubesat XI-IV 27 Jul 10:14:02 10:17:54 21° 311° (NW) 10:21:46 437.490
QB50P2 27 Jul 10:16:00 10:18:36 16° 52° (NE) 10:21:13 145.880/145.840
POLYITAN 1 27 Jul 10:18:35 10:21:14 16° 52° (NE) 10:23:54 437.675
PRISM 27 Jul 10:20:32 10:23:31 19° 269° (W) 10:26:31 437.425
SEEDS 27 Jul 10:24:41 10:28:53 69° 288° (WNW) 10:33:01 437.485
ANTELSAT 27 Jul 10:28:22 10:33:00 69° 70° (ENE) 10:37:43 437.575/2403.000
SO-50 27 Jul 10:30:42 10:35:37 88° 324° (NW) 10:40:27 436.795
FUNcube-1 27 Jul 10:35:01 10:39:21 42° 97° (E) 10:43:34 145.935
UWE-3 27 Jul 10:35:27 10:40:06 63° 102° (ESE) 10:44:38 435.000/436.395/437.385
ZACube-1 27 Jul 10:35:57 10:40:21 45° 98° (E) 10:44:39 437.345
COMPASS 1 27 Jul 10:36:21 10:40:30 72° 289° (WNW) 10:44:37 437.405
CUTE-I 27 Jul 10:38:12 10:41:14 16° 316° (NW) 10:44:16 437.470
M-CUBED/EXP-1 PRIME 27 Jul 10:57:10 11:00:51 22° 97° (E) 11:04:33 437.505
CUBEBUG 2 27 Jul 10:57:46 11:02:31 66° 290° (WNW) 11:07:10 437.445
RS-15 27 Jul 10:58:12 11:10:02 64° 338° (NNW) 11:22:21 29.354- 29.394
HO-68 27 Jul 10:58:49 11:05:52 59° 299° (WNW) 11:12:53 435.675
NOAA 15 27 Jul 11:00:03 11:00:34 10° 324° (NW) 11:01:06 137.62
NANOSAT C BR1 27 Jul 11:00:17 11:03:59 30° 61° (ENE) 11:07:43 145.865
DUCHIFAT 1 27 Jul 11:04:29 11:08:12 30° 62° (ENE) 11:11:58 145.980
AAUSAT CUBESAT 2 27 Jul 11:04:43 11:08:43 49° 292° (WNW) 11:12:41 437.432
CANX-2 27 Jul 11:08:30 11:11:51 23° 301° (WNW) 11:15:10 2200.000
TIGRISAT 27 Jul 11:10:08 11:14:45 60° 259° (WSW) 11:19:27 435.000
NOAA 18 27 Jul 11:15:43 11:17:35 12° 324° (NW) 11:19:28 137.9125
Oscar 11 27 Jul 11:17:28 11:21:51 81° 286° (WNW) 11:26:09 145.826/435.025
DOVE 4 27 Jul 11:18:56 11:21:02 13° 314° (NW) 11:23:11 437.250
BUGSAT 1 27 Jul 11:19:10 11:22:24 22° 57° (ENE) 11:25:41 437.445
AO-7 27 Jul 11:20:29 11:25:00 16° 5° (N) 11:29:31 29.400- 29.500
CUTE 1.7 + AOD 2 27 Jul 11:22:04 11:25:12 20° 303° (WNW) 11:28:18 437.475
QB50P1 27 Jul 11:22:18 11:26:23 46° 66° (ENE) 11:30:29 145.935-145.965
Cosmos 2504 27 Jul 11:22:36 11:31:05 51° 89° (E) 11:39:23 435.465 / 435.565
AUBIESAT-1 27 Jul 11:23:00 11:27:05 30° 101° (E) 11:31:11 437.475
DELFI C3 27 Jul 11:26:24 11:30:22 64° 103° (ESE) 11:34:16 145.870
UNISAT 6 27 Jul 11:26:51 11:31:18 42° 263° (W) 11:35:49 437.425
POPSAT HIP 1 27 Jul 11:28:41 11:32:49 51° 68° (ENE) 11:37:00 437.405
CINEMA 3 27 Jul 11:28:43 11:32:24 21° 306° (NW) 11:36:06 145.822/145.860
YUBILEINY 27 Jul 11:39:27 11:48:14 70° 287° (WNW) 11:57:08 435.215
QB50P2 27 Jul 11:49:31 11:53:47 81° 74° (ENE) 11:58:07 145.880/145.840
HUMSAT D 27 Jul 11:49:37 11:53:49 57° 101° (E) 11:57:56 437.325/437.525
JAS-2 27 Jul 11:50:49 11:56:04 39° 61° (ENE) 12:00:57 435.910
POLYITAN 1 27 Jul 11:52:09 11:56:26 82° 73° (ENE) 12:00:46 437.675
AISAT 27 Jul 11:55:03 11:56:20 11° 83° (E) 11:57:36 437.250
Gurwin Techsat 1B 27 Jul 11:57:49 11:59:46 12° 39° (NE) 12:01:41 435.225
Cosmos 2491 27 Jul 12:00:23 12:06:18 21° 289° (WNW) 12:12:14 435.465 / 435.565
SEEDS 27 Jul 12:01:48 12:03:52 14° 309° (NW) 12:05:56 437.485
ANTELSAT 27 Jul 12:06:33 12:10:11 22° 271° (W) 12:13:51 437.575/2403.000
FUNcube-1 27 Jul 12:11:26 12:15:32 33° 298° (WNW) 12:19:32 145.935
SO-50 27 Jul 12:12:09 12:16:37 35° 341° (NNW) 12:21:02 436.795
UWE-3 27 Jul 12:12:25 12:16:14 25° 302° (WNW) 12:19:59 435.000/436.395/437.385
ZACube-1 27 Jul 12:12:29 12:16:32 32° 299° (WNW) 12:20:29 437.345
Oscar 19 27 Jul 12:13:08 12:17:00 22° 52° (NE) 12:20:54 437.125/150
COMPASS 1 27 Jul 12:13:16 12:15:23 14° 308° (NW) 12:17:30 437.405
ESTCUBE 1 27 Jul 12:28:39 12:32:39 31° 95° (E) 12:36:39 437.505/2401.250
M-CUBED/EXP-1 PRIME 27 Jul 12:31:07 12:35:46 72° 296° (WNW) 12:40:28 437.505
NANOSAT C BR1 27 Jul 12:35:31 12:39:36 44° 261° (W) 12:43:44 145.865
CUBEBUG 2 27 Jul 12:35:35 12:38:19 15° 311° (NW) 12:41:03 437.445
DUCHIFAT 1 27 Jul 12:39:45 12:43:48 43° 261° (W) 12:47:54 145.980
SPROUT 27 Jul 12:39:50 12:42:12 14° 86° (E) 12:44:33 437.525
AAUSAT CUBESAT 2 27 Jul 12:42:57 12:43:18 10° 313° (NW) 12:43:38 437.432
VELOX 1 27 Jul 12:44:41 12:48:30 27° 93° (E) 12:52:18 145.980
CUBEBUG 1 27 Jul 12:45:22 12:49:18 31° 95° (E) 12:53:13 437.445
50 SAT 27 Jul 12:46:34 12:49:39 26° 94° (E) 12:52:42 437.505
HO-68 27 Jul 12:47:12 12:52:20 22° 322° (NW) 12:57:28 435.675
TIGRISAT 27 Jul 12:51:20 12:52:28 11° 279° (W) 12:53:36 435.000
BUGSAT 1 27 Jul 12:53:23 12:57:27 61° 258° (WSW) 13:01:38 437.445
Oscar 11 27 Jul 12:54:43 12:57:21 16° 308° (NW) 12:59:59 145.826/435.025
AUBIESAT-1 27 Jul 12:57:14 13:01:43 53° 300° (WNW) 13:06:14 437.475
QB50P1 27 Jul 12:58:40 13:02:20 28° 266° (W) 13:06:04 145.935-145.965
DELFI C3 27 Jul 13:01:58 13:04:51 20° 302° (WNW) 13:07:44 145.870
POPSAT HIP 1 27 Jul 13:05:19 13:08:52 25° 268° (W) 13:12:28 437.405
AO-7 27 Jul 13:08:43 13:15:04 25° 32° (NNE) 13:21:25 29.400- 29.500
RS-15 27 Jul 13:12:47 13:24:45 58° 10° (N) 13:36:58 29.354- 29.394
Cosmos 2504 27 Jul 13:15:48 13:24:31 55° 292° (WNW) 13:33:05 435.465 / 435.565
AIST 1 27 Jul 13:19:21 13:22:22 19° 85° (E) 13:25:24
HUMSAT D 27 Jul 13:25:45 13:29:10 24° 301° (WNW) 13:32:32 437.325/437.525
QB50P2 27 Jul 13:27:29 13:30:11 16° 273° (W) 13:32:55 145.880/145.840
DX 1 27 Jul 13:28:19 13:32:34 47° 100° (E) 13:36:48 434.975-435.025
AISAT 27 Jul 13:29:15 13:33:42 66° 103° (ESE) 13:38:09 437.250
POLYITAN 1 27 Jul 13:30:09 13:32:50 16° 273° (W) 13:35:33 437.675
Gurwin Techsat 1B 27 Jul 13:33:30 13:38:28 41° 61° (ENE) 13:43:27 435.225
TISAT 1 27 Jul 13:34:46 13:36:50 13° 85° (E) 13:38:54 437.305
JAS-2 27 Jul 13:35:38 13:41:12 46° 261° (W) 13:46:21 435.910
YUBILEINY 27 Jul 13:40:03 13:46:59 25° 314° (NW) 13:53:58 435.215
UKube-1 27 Jul 13:41:35 13:45:50 51° 101° (E) 13:50:04 .
ITAMSAT 1 27 Jul 13:47:32 13:51:44 25° 53° (NE) 13:55:55 435.822/435.867
Oscar 19 27 Jul 13:50:38 13:55:47 88° 253° (WSW) 14:00:58 437.125/150
SO-50 27 Jul 13:54:01 13:58:13 29° 5° (N) 14:02:20 436.795
GONETS M04 27 Jul 13:57:35 14:01:22 14° 63° (ENE) 14:05:10
ESTCUBE 1 27 Jul 14:05:21 14:09:38 44° 295° (WNW) 14:13:54 437.505/2401.250
CUSAT 1 27 Jul 14:05:35 14:07:17 15° 64° (ENE) 14:09:06 437.405
M-CUBED/EXP-1 PRIME 27 Jul 14:06:30 14:09:38 18° 315° (NW) 14:12:50 437.505
SPROUT 27 Jul 14:14:28 14:18:50 87° 112° (ESE) 14:23:10 437.525
50 SAT 27 Jul 14:20:03 14:23:24 36° 294° (WNW) 14:26:44 437.505
VELOX 1 27 Jul 14:20:54 14:25:13 50° 293° (WNW) 14:29:31 145.980
CUBEBUG 1 27 Jul 14:21:34 14:25:44 43° 294° (WNW) 14:29:54 437.445
AO-85 27 Jul 14:26:13 14:30:24 24° 118° (ESE) 14:34:25 145.980
Cosmos 2499 27 Jul 14:26:38 14:31:07 15° 67° (ENE) 14:35:32 435.465 / 435.565
ITUPSAT 1 27 Jul 14:26:53 14:27:23 10° 81° (E) 14:27:54 437.325
AUBIESAT-1 27 Jul 14:32:52 14:35:20 15° 319° (NW) 14:37:51 437.475
HO-68 27 Jul 14:35:48 14:37:33 11° 348° (NNW) 14:39:19 435.675
AIST 1 27 Jul 14:55:19 14:59:33 64° 286° (WNW) 15:03:48
AO-7 27 Jul 14:58:14 15:06:23 59° 56° (ENE) 15:14:34 29.400- 29.500
DX 1 27 Jul 15:04:49 15:08:37 30° 300° (WNW) 15:12:25 434.975-435.025
AISAT 27 Jul 15:06:18 15:09:51 24° 303° (WNW) 15:13:24 437.250
TISAT 1 27 Jul 15:08:55 15:13:12 82° 105° (ESE) 15:17:29 437.305
Gurwin Techsat 1B 27 Jul 15:13:22 15:18:27 44° 262° (W) 15:23:33 435.225
Cosmos 2504 27 Jul 15:13:57 15:20:12 21° 319° (NW) 15:26:22 435.465 / 435.565
SWISSCUBE 27 Jul 15:17:09 15:21:18 29° 93° (E) 15:25:24 437.505
UKube-1 27 Jul 15:18:01 15:21:42 28° 301° (WNW) 15:25:22 .
ITAMSAT 1 27 Jul 15:25:30 15:30:45 79° 254° (WSW) 15:36:01 435.822/435.867
RS-15 27 Jul 15:26:23 15:38:45 86° 40° (NE) 15:51:10 29.354- 29.394
Oscar 19 27 Jul 15:32:28 15:35:53 18° 274° (W) 15:39:19 437.125/150
SO-50 27 Jul 15:35:00 15:39:38 48° 29° (NNE) 15:44:08 436.795
BEESAT 27 Jul 15:38:19 15:42:49 38° 97° (E) 15:47:15 436.000
ESTCUBE 1 27 Jul 15:44:34 15:45:26 10° 316° (NW) 15:46:17 437.505/2401.250
YUBILEINY 27 Jul 15:45:25 15:48:13 12° 347° (NNW) 15:51:02 435.215
CUSAT 1 27 Jul 15:46:49 15:49:23 35° 261° (W) 15:52:22 437.405
GONETS M04 27 Jul 15:47:43 15:55:57 50° 88° (E) 16:04:15
NOAA 15 27 Jul 15:51:12 15:52:24 11° 37° (NE) 15:53:36 137.62
SPROUT 27 Jul 15:51:19 15:54:15 18° 306° (NW) 15:57:11 437.525
VELOX 1 27 Jul 15:59:15 16:00:46 12° 314° (NW) 16:02:16 145.980
ITUPSAT 1 27 Jul 16:01:35 16:06:19 57° 102° (ESE) 16:11:00 437.325
AO-85 27 Jul 16:05:09 16:10:28 89° 123° (ESE) 16:15:25 145.980
NOAA 18 27 Jul 16:09:32 16:12:05 13° 38° (NE) 16:14:37 137.9125
HORYU 2 27 Jul 16:09:34 16:13:19 27° 58° (ENE) 16:17:05 437.375
DANDE 27 Jul 16:12:50 16:15:26 55° 257° (WSW) 16:18:01 436.750
Cosmos 2499 27 Jul 16:13:53 16:22:22 53° 90° (E) 16:30:32 435.465 / 435.565
MOZHAYETS 4 27 Jul 16:16:55 16:19:55 17° 87° (E) 16:22:52
HO-68 27 Jul 16:20:06 16:22:18 12° 15° (NNE) 16:24:29 435.675
AIST 1 27 Jul 16:36:24 16:38:05 12° 307° (NW) 16:39:47
Cubesat XI-IV 27 Jul 16:45:20 16:48:56 18° 47° (NE) 16:52:32 437.490
TISAT 1 27 Jul 16:45:24 16:48:23 19° 305° (NW) 16:51:21 437.305
BRITE-PL 27 Jul 16:48:23 16:51:05 17° 53° (NE) 16:53:51 437.365/2234.400
AO-7 27 Jul 16:51:20 16:59:24 50° 259° (W) 17:07:32 29.400- 29.500
SWISSCUBE 27 Jul 16:54:43 16:59:22 53° 294° (WNW) 17:03:59 437.505
ITAMSAT 1 27 Jul 17:07:53 17:11:06 16° 275° (W) 17:14:18 435.822/435.867
CUTE-I 27 Jul 17:07:57 17:12:13 24° 52° (NE) 17:16:28 437.470
SO-50 27 Jul 17:15:39 17:20:13 50° 231° (SW) 17:24:38 436.795
KKS-1 27 Jul 17:15:48 17:20:08 44° 99° (E) 17:24:26 437.445
BEESAT 27 Jul 17:16:11 17:20:39 40° 297° (WNW) 17:25:05 436.000
Cosmos 2504 27 Jul 17:17:00 17:18:06 10° 351° (N) 17:19:12 435.465 / 435.565
NOAA 15 27 Jul 17:26:05 17:30:51 37° 59° (ENE) 17:35:38 137.62
LilacSat-2 27 Jul 17:36:11 17:39:18 23° 60° (ENE) 17:42:26 437.200
CUBESAT XI-V 27 Jul 17:37:27 17:40:09 15° 85° (E) 17:42:51 437.345
RS-15 27 Jul 17:39:12 17:50:23 43° 248° (WSW) 18:01:30 29.354- 29.394
DOVE 4 27 Jul 17:39:41 17:42:18 15° 49° (NE) 17:45:00 437.250
ITUPSAT 1 27 Jul 17:39:50 17:43:56 29° 302° (WNW) 17:48:00 437.325
GONETS M04 27 Jul 17:44:20 17:52:49 55° 293° (WNW) 18:01:25
HORYU 2 27 Jul 17:45:11 17:49:37 57° 258° (WSW) 17:54:06 437.375
NOAA 18 27 Jul 17:46:17 17:51:30 43° 60° (ENE) 17:56:44 137.9125
YUBILEINY 27 Jul 17:46:26 17:50:28 13° 22° (NNE) 17:54:30 435.215
AO-85 27 Jul 17:46:40 17:51:27 37° 339° (NNW) 17:55:54 145.980
GOMX 1 27 Jul 17:47:25 17:51:00 27° 59° (ENE) 17:54:45 467.674
MOZHAYETS 4 27 Jul 17:53:06 17:57:44 85° 288° (WNW) 18:02:18
STARS 27 Jul 17:53:21 17:57:44 52° 101° (E) 18:02:05 437.465
HO-68 27 Jul 18:02:12 18:07:37 24° 40° (NE) 18:13:04 435.675
Cosmos 2499 27 Jul 18:07:01 18:15:38 53° 293° (WNW) 18:23:55 435.465 / 435.565
Cubesat XI-IV 27 Jul 18:22:50 18:28:12 69° 68° (ENE) 18:33:34 437.490
BRITE-PL 27 Jul 18:24:54 18:29:03 86° 255° (WSW) 18:33:21 437.365/2234.400
SWISSCUBE 27 Jul 18:34:03 18:36:13 13° 315° (NW) 18:38:23 437.505
CUTE-I 27 Jul 18:46:21 18:51:45 84° 253° (WSW) 18:57:11 437.470
AO-7 27 Jul 18:50:58 18:54:29 13° 284° (WNW) 18:58:01 29.400- 29.500
KKS-1 27 Jul 18:52:36 18:56:37 33° 299° (WNW) 19:00:37 437.445
CUBEBUG 2 27 Jul 18:54:07 18:55:21 11° 44° (NE) 18:56:35 437.445
BEESAT 27 Jul 18:56:26 18:57:18 10° 319° (NW) 18:58:10 436.000
CANX-2 27 Jul 18:57:34 19:00:39 20° 56° (ENE) 19:03:45 2200.000
SO-50 27 Jul 18:59:04 18:59:38 10° 252° (WSW) 19:00:12 436.795
NOAA 15 27 Jul 19:05:28 19:10:33 49° 260° (W) 19:15:40 137.62
LilacSat-2 27 Jul 19:09:35 19:13:23 51° 260° (W) 19:17:13 437.200
CUTE 1.7 + AOD 2 27 Jul 19:10:37 19:13:55 22° 58° (ENE) 19:17:14 437.475
Cosmos 2504 27 Jul 19:12:53 19:16:38 13° 25° (NNE) 19:20:17 435.465 / 435.565
CUBESAT XI-V 27 Jul 19:13:38 19:18:17 86° 112° (ESE) 19:22:54 437.345
DOVE 4 27 Jul 19:14:49 19:19:11 71° 72° (ENE) 19:23:53 437.250
STRAND 1 27 Jul 19:18:27 19:20:16 12° 81° (E) 19:22:04 437.568
CINEMA 3 27 Jul 19:23:06 19:27:18 35° 62° (ENE) 19:31:42 145.822/145.860
GOMX 1 27 Jul 19:24:45 19:28:53 52° 261° (W) 19:33:17 467.674
NOAA 18 27 Jul 19:26:54 19:32:12 45° 261° (W) 19:37:32 137.9125
AO-85 27 Jul 19:28:45 19:33:02 28° 3° (N) 19:37:01 145.980
STARS 27 Jul 19:30:06 19:33:54 28° 301° (WNW) 19:37:42 437.465
MOZHAYETS 4 27 Jul 19:31:14 19:34:17 18° 308° (NW) 19:37:21
BEESAT 3 27 Jul 19:31:41 19:35:03 28° 123° (ESE) 19:38:28 437.485
BEESAT 2 27 Jul 19:39:19 19:42:18 21° 119° (ESE) 19:45:19 435.950
YUBILEINY 27 Jul 19:43:18 19:51:05 32° 54° (NE) 19:58:46 435.215
GONETS M04 27 Jul 19:46:06 19:52:08 20° 321° (NW) 19:58:13
HO-68 27 Jul 19:47:09 19:54:15 67° 64° (ENE) 20:01:25 435.675
SEEDS 27 Jul 19:48:14 19:52:00 33° 64° (ENE) 19:55:48 437.485
RS-15 27 Jul 19:55:46 19:59:07 11° 274° (W) 20:02:28 29.354- 29.394
PCSat 27 Jul 19:56:46 20:01:20 28° 114° (ESE) 20:05:56 145.827
COMPASS 1 27 Jul 19:59:09 20:02:49 31° 63° (ENE) 20:06:31 437.405
FUNcube-1 27 Jul 20:03:14 20:06:11 17° 52° (NE) 20:09:09 145.935
UWE-3 27 Jul 20:04:09 20:07:51 24° 57° (ENE) 20:11:35 435.000/436.395/437.385
ZACube-1 27 Jul 20:04:17 20:07:23 18° 53° (NE) 20:10:30 437.345
Cubesat XI-IV 27 Jul 20:04:20 20:08:46 26° 269° (W) 20:13:15 437.490
Cosmos 2499 27 Jul 20:05:09 20:11:04 19° 319° (NW) 20:16:49 435.465 / 435.565
BRITE-PL 27 Jul 20:06:28 20:08:22 13° 276° (W) 20:10:17 437.365/2234.400
M-CUBED/EXP-1 PRIME 27 Jul 20:17:35 20:20:18 17° 44° (NE) 20:23:09 437.505
CUBEBUG 2 27 Jul 20:26:26 20:30:51 43° 65° (ENE) 20:35:23 437.445
AAUSAT CUBESAT 2 27 Jul 20:26:36 20:30:32 43° 66° (ENE) 20:34:28 437.432
CUTE-I 27 Jul 20:29:04 20:32:38 18° 274° (W) 20:36:14 437.470
CANX-2 27 Jul 20:31:48 20:36:05 76° 256° (WSW) 20:40:23 2200.000
AUBIESAT-1 27 Jul 20:42:36 20:45:46 22° 48° (NE) 20:49:07 437.475
Oscar 11 27 Jul 20:43:46 20:47:37 32° 62° (ENE) 20:51:31 145.826/435.025
CUTE 1.7 + AOD 2 27 Jul 20:45:11 20:49:26 65° 258° (WSW) 20:53:42 437.475
DELFI C3 27 Jul 20:46:08 20:48:46 17° 56° (NE) 20:51:25 145.870
CUBESAT XI-V 27 Jul 20:51:51 20:55:08 20° 306° (NW) 20:58:25 437.345
DOVE 4 27 Jul 20:54:15 20:57:30 20° 273° (W) 21:00:53 437.250
STRAND 1 27 Jul 20:55:28 21:00:34 60° 102° (ESE) 21:05:36 437.568
CINEMA 3 27 Jul 20:59:56 21:04:22 44° 263° (W) 21:09:01 145.822/145.860
Cosmos 2504 27 Jul 21:06:04 21:13:30 33° 55° (NE) 21:20:27 435.465 / 435.565
BEESAT 3 27 Jul 21:08:37 21:12:31 61° 323° (NW) 21:16:29 437.485
AO-85 27 Jul 21:09:55 21:14:31 44° 27° (NNE) 21:18:44 145.980
HUMSAT D 27 Jul 21:13:47 21:16:50 19° 56° (NE) 21:19:54 437.325/437.525
O/OREOS (USA 219) 27 Jul 21:14:30 21:18:22 29° 108° (ESE) 21:22:15 437.305
BEESAT 2 27 Jul 21:15:45 21:19:44 80° 320° (NW) 21:23:45 435.950
Cosmos 2491 27 Jul 21:17:33 21:24:53 32° 79° (E) 21:32:13 435.465 / 435.565
SEEDS 27 Jul 21:23:43 21:27:41 39° 263° (W) 21:31:40 437.485
COMPASS 1 27 Jul 21:34:21 21:38:19 41° 262° (W) 21:42:17 437.405
HO-68 27 Jul 21:35:56 21:42:29 37° 266° (W) 21:49:05 435.675
FUNcube-1 27 Jul 21:37:12 21:41:47 80° 73° (ENE) 21:46:24 145.935
ZACube-1 27 Jul 21:38:28 21:43:04 86° 74° (ENE) 21:47:42 437.345
PCSat 27 Jul 21:38:53 21:44:20 76° 316° (NW) 21:49:49 145.827
UWE-3 27 Jul 21:39:18 21:43:54 70° 257° (WSW) 21:48:38 435.000/436.395/437.385
YUBILEINY 27 Jul 21:40:13 21:49:08 89° 265° (W) 21:57:59 435.215
AIST 2 27 Jul 21:44:40 21:47:50 22° 119° (ESE) 21:51:02 435.215
M-CUBED/EXP-1 PRIME 27 Jul 21:50:12 21:54:09 78° 65° (ENE) 21:58:30 437.505
GONETS M04 27 Jul 21:52:02 21:53:49 11° 355° (N) 21:55:35
PRISM 27 Jul 21:53:05 21:56:51 34° 97° (E) 22:00:36 437.425
ESTCUBE 1 27 Jul 22:01:01 22:03:30 15° 50° (NE) 22:06:00 437.505/2401.250
AAUSAT CUBESAT 2 27 Jul 22:02:34 22:06:10 28° 266° (W) 22:09:48 437.432
CUBEBUG 2 27 Jul 22:03:20 22:07:36 35° 266° (W) 22:11:58 437.445
CANX-2 27 Jul 22:11:00 22:12:43 12° 276° (W) 22:14:26 2200.000
CUBEBUG 1 27 Jul 22:14:56 22:17:02 13° 49° (NE) 22:19:08 437.445
VELOX 1 27 Jul 22:15:34 22:17:34 13° 48° (NE) 22:19:35 145.980
AUBIESAT-1 27 Jul 22:15:48 22:19:46 75° 248° (WSW) 22:24:07 437.475
DELFI C3 27 Jul 22:19:12 22:23:11 78° 256° (WSW) 22:27:11 145.870
Oscar 11 27 Jul 22:19:33 22:23:42 42° 262° (W) 22:27:52 145.826/435.025
CUTE 1.7 + AOD 2 27 Jul 22:25:34 22:26:09 10° 278° (W) 22:26:45 437.475
STRAND 1 27 Jul 22:35:04 22:39:29 30° 303° (WNW) 22:43:53 437.568
BEESAT 3 27 Jul 22:47:33 22:50:53 25° 346° (NNW) 22:54:14 437.485
HUMSAT D 27 Jul 22:47:40 22:51:59 80° 254° (WSW) 22:56:20 437.325/437.525
ISS 27 Jul 22:49:21 22:51:30 16° 150° (SSE) 22:53:38 145.825
AO-85 27 Jul 22:50:38 22:55:09 54° 231° (SW) 22:59:15 145.980
O/OREOS (USA 219) 27 Jul 22:53:12 22:57:35 52° 309° (NW) 23:02:00 437.305
BEESAT 2 27 Jul 22:54:36 22:58:06 28° 342° (NNW) 23:01:36 435.950
TIGRISAT 27 Jul 22:54:45 22:58:09 20° 88° (E) 23:01:29 435.000
DX 1 27 Jul 22:56:20 22:59:29 20° 54° (NE) 23:02:38 434.975-435.025
AISAT 27 Jul 22:58:22 23:02:00 26° 58° (ENE) 23:05:40 437.250
Cosmos 2504 27 Jul 22:59:33 23:07:59 83° 261° (W) 23:15:44 435.465 / 435.565
UKube-1 27 Jul 23:08:38 23:11:50 21° 55° (NE) 23:15:03 .
UNISAT 6 27 Jul 23:11:00 23:15:00 27° 92° (E) 23:18:55 437.425
Cosmos 2491 27 Jul 23:12:11 23:20:55 81° 283° (WNW) 23:29:43 435.465 / 435.565
FUNcube-1 27 Jul 23:15:26 23:18:37 18° 273° (W) 23:21:47 145.935
ZACube-1 27 Jul 23:16:59 23:19:59 17° 274° (W) 23:23:01 437.345
AIST 1 27 Jul 23:17:53 23:20:09 14° 55° (NE) 23:22:25
UWE-3 27 Jul 23:19:15 23:21:16 13° 278° (W) 23:23:18 435.000/436.395/437.385
AIST 2 27 Jul 23:21:46 23:25:54 79° 320° (NW) 23:30:06 435.215
PCSat 27 Jul 23:23:41 23:28:32 31° 339° (NNW) 23:33:23 145.827
M-CUBED/EXP-1 PRIME 27 Jul 23:26:42 23:29:18 17° 267° (W) 23:32:03 437.505
PRISM 27 Jul 23:28:27 23:32:12 35° 296° (WNW) 23:35:55 437.425
50 SAT 27 Jul 23:30:56 23:34:20 38° 66° (ENE) 23:37:45 437.505
ESTCUBE 1 27 Jul 23:35:07 23:39:35 69° 70° (ENE) 23:44:05 437.505/2401.250
YUBILEINY 27 Jul 23:37:50 23:44:52 28° 284° (WNW) 23:51:53 435.215
SPROUT 27 Jul 23:39:58 23:43:39 28° 60° (ENE) 23:47:20 437.525
CUBEBUG 1 27 Jul 23:48:17 23:52:33 64° 70° (ENE) 23:56:52 437.445
VELOX 1 27 Jul 23:48:53 23:53:12 59° 69° (ENE) 23:57:34 145.980
ANTELSAT 27 Jul 23:49:11 23:53:48 54° 100° (E) 23:58:18 437.575/2403.000
GONETS M04 27 Jul 23:50:57 23:55:53 16° 30° (NNE) 00:00:50
AUBIESAT-1 27 Jul 23:53:32 23:55:07 12° 271° (W) 23:56:44 437.475
DELFI C3 27 Jul 23:57:27 23:58:46 11° 276° (W) 00:00:03 145.870
Cosmos 2499 28 Jul 00:03:27 00:06:51 13° 25° (NNE) 00:10:07 435.465 / 435.565
NANOSAT C BR1 28 Jul 00:12:46 00:15:51 19° 89° (E) 00:18:56 145.865
DUCHIFAT 1 28 Jul 00:16:40 00:19:47 19° 89° (E) 00:22:54 145.980
ISS 28 Jul 00:24:20 00:27:21 35° 169° (S) 00:30:22 145.825
HUMSAT D 28 Jul 00:26:19 00:28:21 13° 275° (W) 00:30:24 437.325/437.525
BEESAT 3 28 Jul 00:26:23 00:29:38 23° 10° (N) 00:32:53 437.485
BUGSAT 1 28 Jul 00:28:56 00:30:59 13° 85° (E) 00:33:02 437.445
TIGRISAT 28 Jul 00:30:41 00:35:24 76° 288° (WNW) 00:39:59 435.000
DX 1 28 Jul 00:30:53 00:35:13 79° 256° (WSW) 00:39:36 434.975-435.025
TISAT 1 28 Jul 00:32:52 00:36:24 26° 60° (ENE) 00:39:57 437.305
BEESAT 2 28 Jul 00:33:46 00:36:59 22° 5° (N) 00:40:13 435.950
AO-85 28 Jul 00:33:53 00:34:29 10° 253° (WSW) 00:35:05 145.980
AISAT 28 Jul 00:33:54 00:38:13 57° 258° (WSW) 00:42:36 437.250
O/OREOS (USA 219) 28 Jul 00:35:07 00:38:02 17° 332° (NNW) 00:40:58 437.305
QB50P1 28 Jul 00:35:11 00:39:00 30° 94° (E) 00:42:48 145.935-145.965
JAS-2 28 Jul 00:36:36 00:39:32 15° 85° (E) 00:42:33 435.910
POPSAT HIP 1 28 Jul 00:41:39 00:45:35 33° 96° (E) 00:49:30 437.405
UKube-1 28 Jul 00:43:10 00:47:28 74° 255° (WSW) 00:51:49 .
UNISAT 6 28 Jul 00:47:26 00:52:01 54° 293° (WNW) 00:56:30 437.425
AIST 1 28 Jul 00:54:13 00:58:34 74° 76° (ENE) 01:02:56
SWISSCUBE 28 Jul 00:55:15 00:58:19 17° 50° (NE) 01:01:23 437.505
